Regional Weather Roundup
Issued by NWS Sioux Falls, SD

Home | Current Version | Previous Version | Text Only | Print | Product List | Glossary Off
Versions: 1 2 3 4 5 6 7 8 9 10 11 12 13 14 15 16 17 18 19 20 21 22 23 24 25 26 27 28 29 30 31 32 33 34 35 36 37 38 39 40 41 42 43 44 45 46 47 48 49 50

000
ASUS43 KFSD 280510
RWRFSD

WEATHER ROUNDUP FOR SE SOUTH DAKOTA/SW MINNESOTA/NW IOWA
NATIONAL WEATHER SERVICE SIOUX FALLS SD
1200 AM CDT THU AUG 28 2014

NOTE: "FAIR" INDICATES FEW OR NO CLOUDS BELOW 12,000 FEET WITH NO
SIGNIFICANT WEATHER AND OR OBSTRUCTIONS TO VISIBILITY.


SDZ038>040-050-052>070-280600-
SOUTHEAST SOUTH DAKOTA

CITY           SKY/WX    TMP DP  RH WIND       PRES   REMARKS
CHAMBERLAIN    LGT RAIN  67  66  99 SE7       30.02F
HURON          MOCLDY    68  64  87 SE6       30.03F
MADISON        CLOUDY    66  66 100 SE9       30.09S
MITCHELL       CLOUDY    69  67  93 SE10      30.04F
SIOUX FALLS    CLOUDY    69  65  86 SE12      30.07F
WINNER         HVY RAIN  68  67  96 E10       30.02F FOG
YANKTON        CLOUDY    68  66  94 E8        30.05F
$$

MNZ071-072-080-081-089-090-097-098-280600-
SOUTHWEST MINNESOTA

CITY           SKY/WX    TMP DP  RH WIND       PRES   REMARKS
FAIRMONT       MOCLDY    61  57  88 SE5       30.12F
JACKSON        CLOUDY    63  59  88 E5        30.13F
LUVERNE        CLOUDY    68  63  83 E5        30.10F
MARSHALL       PTCLDY    63  57  82 S8        30.10S
MONTEVIDEO     MOCLDY    63  61  94 S6        30.11S
PIPESTONE      CLOUDY    66  63  88 SE6       30.10F
REDWOOD FALLS  MOCLDY    63  58  83 SE7       30.11F
TRACY          MOCLDY    64  60  88 S5        30.11F
WINDOM         CLOUDY    64  59  82 E7        30.12F
WORTHINGTON    CLOUDY    64  63  94 E6        30.12F
$$

IAZ001>003-012>014-020>022-031-032-NEZ013-014-SDZ071-280600-
NORTHWEST IOWA

CITY           SKY/WX    TMP DP  RH WIND       PRES   REMARKS
DENISON        CLOUDY    68  68 100 E5        30.07S
ESTHERVILLE    CLOUDY    63  61  93 E6        30.11F
LE MARS        CLOUDY    70  68  94 VRB5      30.08F
ORANGE CITY    LGT RAIN  70  66  88 E6        30.09F
SHELDON        CLOUDY    68  66  94 SE5       30.09F
SIOUX CITY     CLOUDY    69  67  93 SE5       30.07F
SPENCER        CLOUDY    68  63  84 E8        30.11F
STORM LAKE     CLOUDY    68  68 100 E7        30.10F
$$

ABBREVIATIONS USED IN REMARKS
   TC - TEMPERATURE IN CELSIUS
  WCI - WIND CHILL INDEX
   HX - HEAT INDEX
  VSB - VISIBILITY



USA.gov is the U.S. government's official web portal to all federal, state and local government web resources and services.